Location: Teramo
(42.6500°N, 13.7000°E)
Time: 11:54:34
(UTC+02:00)

ISS - Visible Passes

Search period start: 11 May 2021 00:00
Search period end: 21 May 2021 00:00
Orbit: 418 x 421 km, 51.6° (Epoch: 11 May)

Date Brightness Start Highest point End Pass type
(mag) Time Alt. Az. Time Alt. Az. Time Alt. Az.
11 May -1.1 02:04:21 20° N 02:04:21 20° N 02:06:40 10° NE visible
11 May -1.0 03:39:13 10° NW 03:41:46 19° N 03:44:20 10° ENE visible
11 May -2.9 05:15:48 10° NW 05:19:08 54° NNE 05:22:27 10° ESE visible
12 May -0.7 01:18:16 16° NNE 01:18:16 16° NNE 01:19:15 10° NE visible
12 May -0.9 02:51:43 10° NW 02:54:08 18° N 02:56:33 10° NE visible
12 May -2.1 04:28:26 10° NW 04:31:38 37° NNE 04:34:48 10° E visible
13 May -0.9 02:05:02 14° NNW 02:06:28 17° N 02:08:50 10° NE visible
13 May -1.6 03:41:06 10° NW 03:44:03 28° NNE 03:47:02 10° E visible
14 May -0.9 01:18:38 18° N 01:18:48 18° N 01:21:13 10° NE visible
14 May -1.2 02:53:43 10° NW 02:56:28 23° NNE 02:59:13 10° ENE visible
14 May -3.7 04:30:16 10° NW 04:33:39 86° NE 04:37:02 10° ESE visible
14 May -2.3 21:14:50 10° S 21:17:16 19° SE 21:19:44 10° E visible
14 May -3.2 22:50:29 10° WSW 22:53:48 57° NNW 22:55:37 24° NE visible
15 May -1.0 00:28:35 10° WNW 00:31:09 20° N 00:33:43 10° NE visible
15 May -1.0 02:06:17 10° NW 02:08:50 20° N 02:11:24 10° ENE visible
15 May -3.0 03:42:51 10° NW 03:46:11 54° NNE 03:49:31 10° ESE visible
15 May -3.9 22:03:00 10° SW 22:06:22 89° ESE 22:09:44 10° ENE visible
15 May -1.3 23:40:44 10° WNW 23:43:31 23° NNW 23:46:18 10° NE visible
16 May -0.8 01:18:46 10° NW 01:21:11 18° N 01:23:35 10° NE visible
16 May -2.2 02:55:30 10° NW 02:58:40 37° NNE 03:01:51 10° E visible
16 May -3.1 04:32:22 10° WNW 04:35:28 33° SW 04:38:32 10° SSE visible
16 May -3.7 21:15:40 10° SW 21:18:57 53° SE 21:22:14 10° ENE visible
16 May -1.7 22:52:56 10° W 22:55:55 29° NNW 22:58:54 10° NE visible
17 May -0.8 00:31:09 10° NW 00:33:31 17° N 00:35:52 10° NE visible
17 May -1.7 02:08:08 10° NW 02:11:07 28° NNE 02:14:05 10° E visible
17 May -3.8 03:45:03 12° WNW 03:48:06 57° SW 03:51:25 10° SE visible
17 May -2.2 22:05:11 10° W 22:08:22 38° NNW 22:11:33 10° NE visible
17 May -0.8 23:43:26 10° NW 23:45:50 18° N 23:48:15 10° NE visible
18 May -1.2 01:20:45 10° NW 01:22:56 22° N 01:22:56 22° N visible
18 May -3.0 21:17:32 10° WSW 21:20:51 57° NNW 21:24:10 10° NE visible
18 May -1.0 22:55:37 10° WNW 22:58:11 20° N 23:00:45 10° NE visible
19 May -1.1 00:33:19 10° NW 00:35:52 20° N 00:36:31 19° NNE visible
19 May -1.2 22:07:47 10° WNW 22:10:32 23° NNW 22:13:19 10° NE visible
19 May -0.9 23:45:48 10° NW 23:48:12 18° N 23:50:21 11° NE visible
20 May -0.9 01:22:31 10° NW 01:23:17 15° NW 01:23:17 15° NW visible
20 May -1.6 21:19:58 10° W 21:22:56 28° NNW 21:25:56 10° NE visible
20 May -0.9 22:58:11 10° NW 23:00:32 17° N 23:02:53 10° NE visible
